This is the latest recevied weather packets stored in our database for station/object NI4CE-10. If no packets are shown the sender has not sent any weather packets the latest 10 day(s).
| Time | Temp. | Humidity | Pressure | Rain* | Wind** | Luminosity | Snow |
|---|---|---|---|---|---|---|---|
| 1777740665 | 31.11° C | 100% | 1014.5 hPa | 0 mm | - | - | - |
| 1777740365 | 31.11° C | 100% | 1014.5 hPa | 0 mm | - | - | - |
| 1777740065 | 31.11° C | 100% | 1014.5 hPa | 0 mm | - | - | - |
| 1777739765 | 32.22° C | 100% | 1014.4 hPa | 0 mm | - | - | - |
| 1777739743 | 32.22° C | 100% | 1014.4 hPa | 0 mm | - | - | - |
| 1777739465 | 32.22° C | 100% | 1014.4 hPa | 0 mm | - | - | - |
| 1777739166 | 32.22° C | 100% | 1014.4 hPa | 0 mm | - | - | - |
| 1777738866 | 32.78° C | 100% | 1014.4 hPa | 0 mm | - | - | - |
| 1777738566 | 32.22° C | 100% | 1014.3 hPa | 0 mm | - | - | - |
| 1777738266 | 32.22° C | 100% | 1014.6 hPa | 0 mm | - | - | - |
| 1777737966 | 31.67° C | 100% | 1014.6 hPa | 0 mm | - | - | - |
| 1777737707 | 32.22° C | 100% | 1014.5 hPa | 0 mm | - | - | - |
| 1777737666 | 31.67° C | 100% | 1014.5 hPa | 0 mm | - | - | - |
| 1777737366 | 32.22° C | 100% | 1014.5 hPa | 0 mm | - | - | - |
| 1777737066 | 31.67° C | 100% | 1014.5 hPa | 0 mm | - | - | - |
| 1777737023 | 31.67° C | 100% | 1014.5 hPa | 0 mm | - | - | - |
| 1777736766 | 31.67° C | 100% | 1014.5 hPa | 0 mm | - | - | - |
| 1777736466 | 31.11° C | 100% | 1014.5 hPa | 0 mm | - | - | - |
| 1777736166 | 31.11° C | 100% | 1014.3 hPa | 0 mm | - | - | - |
| 1777735866 | 31.11° C | 100% | 1014.2 hPa | 0 mm | - | - | - |
| 1777735566 | 30.56° C | 100% | 1014.2 hPa | 0 mm | - | - | - |
| 1777735266 | 31.11° C | 100% | 1014.2 hPa | 0 mm | - | - | - |
| 1777734966 | 32.22° C | 100% | 1014.2 hPa | 0 mm | - | - | - |
| 1777734848 | 30° C | 100% | 1014.3 hPa | 0 mm | - | - | - |
| 1777734666 | 31.11° C | 100% | 1014.2 hPa | 0 mm | - | - | - |
* Rain latest hour (hover to see other rain measurements)
** Current wind speed in m/s (hover to see current wind gust speed)